Cumberland, WV

8:44 PM EDT on August 18, 2017 (GMT -0400)
Greater Cumberland Regional

Weather History for KCBE - November, 2012

Change the Weather History Date:

Friday, November 9, 2012

  Actual Average (KMRB) Record (KMRB)
Temperature  
Mean Temperature 44 °F -  
Max Temperature 57 °F 57 °F 78 °F (1937)
Min Temperature 30 °F 36 °F 19 °F (1967)
Degree Days  
Heating Degree Days 22    
Moisture  
Dew Point 33 °F    
Average Humidity 71    
Maximum Humidity 100    
Minimum Humidity 41    
Precipitation  
Precipitation 0.00 in - - ()
Sea Level Pressure  
Sea Level Pressure 30.23 in    
Wind  
Wind Speed 3 mph (WNW)    
Max Wind Speed 12 mph    
Max Gust Speed 18 mph    
Visibility 10 miles    
Events      
Averages and records for this station are not official NWS values.
T = Trace of Precipitation, MM = Missing Value Source: NWS Daily Summary

Daily Weather History Graph

Daily Weather History Graph

Search for Another Location

Airport or City:

Trip Planner

Search our weather history database for the weather conditions in past years. The results will help you decide how hot, cold, wet, or windy it might be!

Date:

Astronomy

Nov. 09, 2012 Rise Set
Actual Time 6:53 AM EST 5:04 PM EST
Civil Twilight 6:24 AM EST 5:32 PM EST
Nautical Twilight 5:52 AM EST 6:05 PM EST
Astronomical Twilight 5:20 AM EST 6:36 PM EST
Moon 1:50 AM EST (11/9) 2:15 PM EST (11/9)
Length of Visible Light 11h 08m
Length of Day
10h 11m
Waning Crescent, 23% of the Moon is Illuminated
Nov 9
Waning Crescent
Nov 13
New
Nov 20
First Quarter
Nov 28
Full
Dec 6
Last Quarter

Hourly Weather History & Observations

Time (EST) Temp. Windchill Dew Point Humidity Pressure Visibility Wind Dir Wind Speed Gust Speed Precip Events Conditions
12:04 AM 41.0 °F 38.0 °F 32.0 °F 70% 30.17 in 10.0 mi West 4.6 mph - N/A   Clear
12:26 AM 41.0 °F 37.1 °F 32.0 °F 70% 30.17 in 10.0 mi WNW 5.8 mph - N/A   Clear
12:47 AM 41.0 °F 38.0 °F 32.0 °F 70% 30.16 in 10.0 mi WNW 4.6 mph - N/A   Clear
1:08 AM 41.0 °F 39.0 °F 32.0 °F 70% 30.16 in 10.0 mi West 3.5 mph - N/A   Clear
1:29 AM 41.0 °F - 32.0 °F 70% 30.17 in 10.0 mi Calm Calm - N/A   Clear
1:51 AM 39.2 °F - 32.0 °F 75% 30.17 in 10.0 mi Calm Calm - N/A   Clear
2:12 AM 39.2 °F - 32.0 °F 75% 30.17 in 10.0 mi Calm Calm - N/A   Clear
2:33 AM 37.4 °F - 32.0 °F 81% 30.17 in 10.0 mi Calm Calm - N/A   Clear
2:54 AM 35.6 °F - 32.0 °F 87% 30.17 in 10.0 mi Calm Calm - N/A   Clear
3:16 AM 33.8 °F 30.8 °F 32.0 °F 93% 30.18 in 10.0 mi NW 3.5 mph - N/A   Clear
3:37 AM 33.8 °F 30.8 °F 32.0 °F 93% 30.18 in 10.0 mi NNW 3.5 mph - N/A   Clear
3:58 AM 33.8 °F 30.8 °F 32.0 °F 93% 30.19 in 10.0 mi NNW 3.5 mph - N/A   Clear
4:20 AM 32.0 °F - 32.0 °F 100% 30.20 in 10.0 mi Calm Calm - N/A   Clear
4:41 AM 32.0 °F - 30.2 °F 93% 30.21 in 10.0 mi Calm Calm - N/A   Clear
5:02 AM 32.0 °F - 32.0 °F 100% 30.22 in 10.0 mi Calm Calm - N/A   Clear
5:23 AM 32.0 °F - 32.0 °F 100% 30.22 in 10.0 mi Calm Calm - N/A   Clear
5:45 AM 32.0 °F - 32.0 °F 100% 30.22 in 10.0 mi Calm Calm - N/A   Clear
6:06 AM 32.0 °F - 30.2 °F 93% 30.22 in 7.0 mi Calm Calm - N/A   Clear
6:27 AM 30.2 °F - 30.2 °F 100% 30.23 in 7.0 mi Calm Calm - N/A   Clear
6:48 AM 32.0 °F - 32.0 °F 100% 30.24 in 7.0 mi Calm Calm - N/A   Clear
7:10 AM 30.2 °F - 30.2 °F 100% 30.25 in 4.0 mi Calm Calm - N/A   Clear
7:31 AM 32.0 °F - 32.0 °F 100% 30.26 in 5.0 mi Calm Calm - N/A   Clear
7:52 AM 32.0 °F - 32.0 °F 100% 30.27 in 5.0 mi Calm Calm - N/A   Clear
8:13 AM 32.0 °F - 32.0 °F 100% 30.27 in 5.0 mi Calm Calm - N/A   Clear
8:34 AM 35.6 °F - 33.8 °F 93% 30.27 in 7.0 mi Calm Calm - N/A   Clear
8:56 AM 37.4 °F - 33.8 °F 87% 30.27 in 7.0 mi Calm Calm - N/A   Clear
9:17 AM 39.2 °F - 33.8 °F 81% 30.28 in 10.0 mi Calm Calm - N/A   Clear
9:38 AM 42.8 °F - 33.8 °F 70% 30.28 in 10.0 mi Calm Calm - N/A   Clear
9:59 AM 44.6 °F - 33.8 °F 66% 30.28 in 10.0 mi Calm Calm - N/A   Clear
10:21 AM 46.4 °F 43.5 °F 33.8 °F 62% 30.28 in 10.0 mi SE 5.8 mph - N/A   Clear
10:42 AM 50.0 °F - 35.6 °F 58% 30.27 in 10.0 mi East 3.5 mph - N/A   Clear
11:03 AM 51.8 °F - 33.8 °F 50% 30.27 in 10.0 mi Calm Calm - N/A   Clear
11:24 AM 51.8 °F - 35.6 °F 54% 30.27 in 10.0 mi West 9.2 mph - N/A   Clear
11:46 AM 51.8 °F - 35.6 °F 54% 30.26 in 10.0 mi West 10.4 mph 16.1 mph N/A   Clear
12:07 PM 53.6 °F - 33.8 °F 47% 30.26 in 10.0 mi West 11.5 mph 18.4 mph N/A   Clear
12:28 PM 53.6 °F - 35.6 °F 51% 30.24 in 10.0 mi NNW 6.9 mph - N/A   Clear
1:11 PM 55.4 °F - 33.8 °F 44% 30.22 in 10.0 mi West 4.6 mph - N/A   Clear
1:32 PM 55.4 °F - 33.8 °F 44% 30.22 in 10.0 mi Calm Calm - N/A   Clear
1:53 PM 55.4 °F - 33.8 °F 44% 30.21 in 10.0 mi WNW 6.9 mph - N/A   Clear
2:14 PM 55.4 °F - 33.8 °F 44% 30.20 in 10.0 mi WNW 5.8 mph - N/A   Clear
2:35 PM 55.4 °F - 33.8 °F 44% 30.20 in 10.0 mi NW 4.6 mph - N/A   Clear
2:57 PM 57.2 °F - 33.8 °F 41% 30.19 in 10.0 mi WNW 5.8 mph - N/A   Clear
3:18 PM 55.4 °F - 33.8 °F 44% 30.19 in 10.0 mi North 3.5 mph - N/A   Clear
3:39 PM 55.4 °F - 33.8 °F 44% 30.19 in 10.0 mi NW 3.5 mph - N/A   Clear
4:00 PM 55.4 °F - 33.8 °F 44% 30.20 in 10.0 mi WNW 4.6 mph - N/A   Clear
4:22 PM 55.4 °F - 33.8 °F 44% 30.20 in 10.0 mi West 5.8 mph - N/A   Clear
4:43 PM 53.6 °F - 33.8 °F 47% 30.20 in 10.0 mi West 6.9 mph - N/A   Clear
5:04 PM 53.6 °F - 32.0 °F 44% 30.21 in 10.0 mi West 3.5 mph - N/A   Clear
5:25 PM 51.8 °F - 33.8 °F 50% 30.22 in 10.0 mi West 4.6 mph - N/A   Clear
5:46 PM 53.6 °F - 32.0 °F 44% 30.23 in 10.0 mi West 3.5 mph - N/A   Clear
6:08 PM 50.0 °F - 32.0 °F 50% 30.23 in 10.0 mi WSW 6.9 mph - N/A   Clear
6:29 PM 51.8 °F - 33.8 °F 50% 30.24 in 10.0 mi Calm Calm - N/A   Clear
6:50 PM 50.0 °F - 33.8 °F 54% 30.24 in 10.0 mi Calm Calm - N/A   Clear
7:11 PM 48.2 °F - 33.8 °F 58% 30.24 in 10.0 mi Calm Calm - N/A   Clear
7:33 PM 50.0 °F - 33.8 °F 54% 30.24 in 10.0 mi Calm Calm - N/A   Clear
7:54 PM 42.8 °F - 32.0 °F 66% 30.24 in 10.0 mi Calm Calm - N/A   Clear
8:15 PM 44.6 °F - 32.0 °F 61% 30.23 in 10.0 mi Calm Calm - N/A   Clear
8:36 PM 42.8 °F - 33.8 °F 70% 30.23 in 10.0 mi Calm Calm - N/A   Clear
8:58 PM 42.8 °F - 32.0 °F 66% 30.24 in 10.0 mi Calm Calm - N/A   Clear
9:19 PM 41.0 °F - 33.8 °F 76% 30.24 in 10.0 mi Calm Calm - N/A   Clear
9:40 PM 41.0 °F 38.0 °F 33.8 °F 76% 30.25 in 10.0 mi NNW 4.6 mph - N/A   Clear
10:01 PM 41.0 °F - 33.8 °F 76% 30.24 in 10.0 mi Calm Calm - N/A   Clear
10:23 PM 41.0 °F - 33.8 °F 76% 30.25 in 10.0 mi Calm Calm - N/A   Clear
10:44 PM 37.4 °F - 33.8 °F 87% 30.25 in 10.0 mi Calm Calm - N/A   Clear
11:05 PM 35.6 °F - 33.8 °F 93% 30.25 in 10.0 mi Calm Calm - N/A   Clear
11:26 PM 35.6 °F - 33.8 °F 93% 30.25 in 10.0 mi Calm Calm - N/A   Clear
11:48 PM 35.6 °F - 33.8 °F 93% 30.25 in 10.0 mi Calm Calm - N/A   Clear